Consulta, visualización y exportación
Histórico de datos
Filtra por dispositivo y rango de fechas para inspeccionar el comportamiento de los data loggers, visualizar tendencias y descargar los resultados como CSV.
Tendencias del filtro actual
Gráficas del histórico
Cargando datos para la gráfica…
Temperatura y humedad
Batería y lluvia
| ID | Dispositivo | Fecha | Hora | sysDT | Temperatura 1 | Temperatura 2 | Humedad | Batería | Nivel de lluvia |
|---|---|---|---|---|---|---|---|---|---|
| 13404 | ciricote12 | 2026-05-07 | 09:46:06 | 2026-05-07 15:46:06 | 34.3 | 33.8 | 58.0 | 4.08 | 50.0 |
| 13403 | ciricote1 | 2026-05-07 | 09:45:58 | 2026-05-07 15:45:58 | 34.6 | 34.0 | 61.0 | 4.21 | 0.0 |
| 13402 | ciricote11 | 2026-05-07 | 09:31:09 | 2026-05-07 15:31:10 | 33.5 | 33.7 | 60.0 | 4.06 | 0.0 |
| 13401 | ciricote12 | 2026-05-07 | 09:31:06 | 2026-05-07 15:31:06 | 34.2 | 33.4 | 60.0 | 4.08 | 50.0 |
| 13400 | ciricote1 | 2026-05-07 | 09:30:51 | 2026-05-07 15:30:51 | 34.8 | 33.9 | 62.5 | 4.21 | 0.0 |
| 13399 | ciricote11 | 2026-05-07 | 09:16:09 | 2026-05-07 15:16:10 | 32.3 | 32.8 | 62.0 | 4.06 | 0.0 |
| 13398 | ciricote12 | 2026-05-07 | 09:15:59 | 2026-05-07 15:15:59 | 33.0 | 32.3 | 62.5 | 4.08 | 50.0 |
| 13397 | ciricote1 | 2026-05-07 | 09:15:58 | 2026-05-07 15:15:58 | 34.1 | 33.3 | 63.5 | 4.21 | 0.0 |
| 13396 | ciricote12 | 2026-05-07 | 09:00:59 | 2026-05-07 15:00:59 | 33.5 | 32.8 | 63.0 | 4.06 | 50.0 |
| 13395 | ciricote1 | 2026-05-07 | 09:00:56 | 2026-05-07 15:00:56 | 34.5 | 33.4 | 64.5 | 4.21 | 0.0 |
| 13394 | ciricote11 | 2026-05-07 | 09:00:47 | 2026-05-07 15:00:47 | 32.4 | 33.1 | 62.5 | 4.06 | 0.0 |
| 13393 | ciricote1 | 2026-05-07 | 08:46:01 | 2026-05-07 14:46:01 | 34.0 | 33.0 | 66.5 | 4.21 | 0.0 |
| 13392 | ciricote11 | 2026-05-07 | 08:45:53 | 2026-05-07 14:45:54 | 32.2 | 32.5 | 65.0 | 4.06 | 0.0 |
| 13391 | ciricote12 | 2026-05-07 | 08:45:52 | 2026-05-07 14:45:52 | 32.5 | 32.1 | 66.0 | 4.06 | 50.0 |
| 13390 | ciricote11 | 2026-05-07 | 08:31:08 | 2026-05-07 14:31:08 | 31.0 | 31.1 | 72.0 | 4.05 | 0.0 |
| 13389 | ciricote12 | 2026-05-07 | 08:30:52 | 2026-05-07 14:30:52 | 31.5 | 30.9 | 71.0 | 4.06 | 50.0 |
| 13388 | ciricote1 | 2026-05-07 | 08:30:50 | 2026-05-07 14:30:50 | 33.4 | 31.5 | 74.0 | 4.21 | 0.0 |
| 13387 | ciricote12 | 2026-05-07 | 08:15:59 | 2026-05-07 14:15:59 | 31.3 | 30.2 | 74.0 | 4.06 | 50.0 |
| 13386 | ciricote1 | 2026-05-07 | 08:15:55 | 2026-05-07 14:15:55 | 31.3 | 30.5 | 78.0 | 4.21 | 0.0 |
| 13385 | ciricote11 | 2026-05-07 | 08:15:50 | 2026-05-07 14:15:50 | 30.0 | 30.4 | 75.0 | 4.05 | 0.0 |
| 13384 | ciricote12 | 2026-05-07 | 08:01:06 | 2026-05-07 14:01:06 | 29.8 | 29.4 | 77.0 | 4.05 | 50.0 |
| 13383 | ciricote11 | 2026-05-07 | 08:01:03 | 2026-05-07 14:01:04 | 29.4 | 29.2 | 80.0 | 4.05 | 0.0 |
| 13382 | ciricote1 | 2026-05-07 | 08:00:46 | 2026-05-07 14:00:46 | 29.1 | 29.3 | 83.5 | 4.21 | 0.0 |
| 13381 | ciricote11 | 2026-05-07 | 07:46:03 | 2026-05-07 13:46:04 | 28.7 | 28.4 | 84.0 | 4.05 | 0.0 |
| 13380 | ciricote1 | 2026-05-07 | 07:45:53 | 2026-05-07 13:45:53 | 28.4 | 28.4 | 87.5 | 4.21 | 0.0 |
| 13379 | ciricote12 | 2026-05-07 | 07:45:43 | 2026-05-07 13:45:43 | 29.5 | 28.5 | 99.5 | 4.05 | 50.0 |
| 13378 | ciricote11 | 2026-05-07 | 07:30:48 | 2026-05-07 13:30:48 | 28.5 | 28.3 | 86.5 | 4.05 | 0.0 |
| 13377 | ciricote12 | 2026-05-07 | 07:30:45 | 2026-05-07 13:30:45 | 29.3 | 28.4 | 83.0 | 4.05 | 50.0 |
| 13376 | ciricote1 | 2026-05-07 | 07:30:44 | 2026-05-07 13:30:44 | 28.3 | 28.3 | 89.5 | 4.21 | 0.0 |
| 13375 | ciricote12 | 2026-05-07 | 07:16:04 | 2026-05-07 13:16:04 | 27.6 | 27.3 | 88.5 | 4.03 | 50.0 |
| 13374 | ciricote11 | 2026-05-07 | 07:15:54 | 2026-05-07 13:15:55 | 27.4 | 27.3 | 92.0 | 4.05 | 0.0 |
| 13373 | ciricote1 | 2026-05-07 | 07:15:44 | 2026-05-07 13:15:44 | 27.2 | 27.2 | 95.5 | 4.21 | 1.0 |
| 13372 | ciricote11 | 2026-05-07 | 07:01:01 | 2026-05-07 13:01:01 | 26.9 | 26.7 | 94.0 | 4.03 | 0.0 |
| 13371 | ciricote1 | 2026-05-07 | 07:00:58 | 2026-05-07 13:00:58 | 26.7 | 26.7 | 97.5 | 4.21 | 1.0 |
| 13370 | ciricote12 | 2026-05-07 | 07:00:41 | 2026-05-07 13:00:41 | 27.0 | 26.7 | 91.5 | 4.03 | 50.0 |
| 13369 | ciricote11 | 2026-05-07 | 06:46:08 | 2026-05-07 12:46:08 | 26.3 | 26.2 | 96.5 | 4.03 | 0.0 |
| 13368 | ciricote1 | 2026-05-07 | 06:46:05 | 2026-05-07 12:46:05 | 26.1 | 26.2 | 99.5 | 4.21 | 1.0 |
| 13367 | ciricote12 | 2026-05-07 | 06:45:48 | 2026-05-07 12:45:48 | 26.5 | 26.2 | 93.5 | 4.03 | 50.0 |
| 13366 | ciricote11 | 2026-05-07 | 06:31:09 | 2026-05-07 12:31:09 | 25.8 | 25.7 | 98.0 | 4.03 | 0.0 |
| 13365 | ciricote12 | 2026-05-07 | 06:30:55 | 2026-05-07 12:30:55 | 25.8 | 25.7 | 95.0 | 4.03 | 50.0 |
| 13364 | ciricote1 | 2026-05-07 | 06:30:42 | 2026-05-07 12:30:42 | 25.6 | 25.8 | 99.5 | 4.21 | 1.0 |
| 13363 | ciricote11 | 2026-05-07 | 06:16:08 | 2026-05-07 12:16:09 | 25.6 | 25.5 | 99.0 | 4.03 | 0.0 |
| 13362 | ciricote12 | 2026-05-07 | 06:15:55 | 2026-05-07 12:15:55 | 25.6 | 25.4 | 96.5 | 4.03 | 50.0 |
| 13361 | ciricote1 | 2026-05-07 | 06:15:49 | 2026-05-07 12:15:49 | 25.4 | 25.5 | 99.5 | 4.21 | 1.0 |
| 13360 | ciricote12 | 2026-05-07 | 06:00:55 | 2026-05-07 12:00:55 | 25.3 | 25.1 | 97.5 | 4.03 | 50.0 |
| 13359 | ciricote1 | 2026-05-07 | 06:00:49 | 2026-05-07 12:00:49 | 25.0 | 25.2 | 99.5 | 4.21 | 1.0 |
| 13358 | ciricote11 | 2026-05-07 | 06:00:46 | 2026-05-07 12:00:46 | 25.3 | 25.2 | 99.5 | 4.03 | 0.0 |
| 13357 | ciricote11 | 2026-05-07 | 05:46:08 | 2026-05-07 11:46:09 | 25.1 | 25.0 | 99.5 | 4.03 | 0.0 |
| 13356 | ciricote12 | 2026-05-07 | 05:45:55 | 2026-05-07 11:45:55 | 25.0 | 25.0 | 98.0 | 4.03 | 50.0 |
| 13355 | ciricote1 | 2026-05-07 | 05:45:49 | 2026-05-07 11:45:49 | 24.8 | 25.1 | 99.5 | 4.21 | 1.0 |
| 13354 | ciricote12 | 2026-05-07 | 05:31:02 | 2026-05-07 11:31:02 | 25.2 | 25.2 | 97.0 | 4.03 | 50.0 |
| 13353 | ciricote1 | 2026-05-07 | 05:30:49 | 2026-05-07 11:30:49 | 25.1 | 25.3 | 99.5 | 4.21 | 1.0 |
| 13352 | ciricote11 | 2026-05-07 | 05:30:46 | 2026-05-07 11:30:46 | 25.3 | 25.2 | 99.5 | 4.03 | 0.0 |
| 13351 | ciricote1 | 2026-05-07 | 05:15:49 | 2026-05-07 11:15:49 | 25.0 | 25.2 | 99.5 | 4.21 | 1.0 |
| 13350 | ciricote12 | 2026-05-07 | 05:15:48 | 2026-05-07 11:15:48 | 25.1 | 25.1 | 97.0 | 4.03 | 50.0 |
| 13349 | ciricote11 | 2026-05-07 | 05:15:46 | 2026-05-07 11:15:46 | 25.3 | 25.1 | 99.5 | 4.03 | 0.0 |
| 13348 | ciricote12 | 2026-05-07 | 05:01:06 | 2026-05-07 11:01:06 | 25.1 | 25.1 | 97.0 | 4.03 | 50.0 |
| 13347 | ciricote1 | 2026-05-07 | 05:00:49 | 2026-05-07 11:00:49 | 25.0 | 25.2 | 99.5 | 4.21 | 1.0 |
| 13346 | ciricote11 | 2026-05-07 | 05:00:46 | 2026-05-07 11:00:46 | 25.2 | 25.1 | 99.5 | 4.03 | 0.0 |
| 13345 | ciricote1 | 2026-05-07 | 04:45:49 | 2026-05-07 10:45:49 | 25.0 | 25.3 | 99.5 | 4.21 | 1.0 |
| 13344 | ciricote12 | 2026-05-07 | 04:45:48 | 2026-05-07 10:45:48 | 25.1 | 25.1 | 96.5 | 4.03 | 50.0 |
| 13343 | ciricote11 | 2026-05-07 | 04:45:45 | 2026-05-07 10:45:46 | 25.2 | 25.2 | 99.5 | 4.03 | 0.0 |
| 13342 | ciricote11 | 2026-05-07 | 04:31:08 | 2026-05-07 10:31:08 | 25.4 | 25.3 | 98.0 | 4.03 | 0.0 |
| 13341 | ciricote12 | 2026-05-07 | 04:30:55 | 2026-05-07 10:30:55 | 25.3 | 25.3 | 95.0 | 4.03 | 50.0 |
| 13340 | ciricote1 | 2026-05-07 | 04:30:42 | 2026-05-07 10:30:42 | 25.1 | 25.4 | 99.5 | 4.21 | 1.0 |
| 13339 | ciricote11 | 2026-05-07 | 04:16:08 | 2026-05-07 10:16:08 | 25.5 | 25.3 | 98.0 | 4.03 | 0.0 |
| 13338 | ciricote12 | 2026-05-07 | 04:15:48 | 2026-05-07 10:15:48 | 25.3 | 25.3 | 94.5 | 4.03 | 50.0 |
| 13337 | ciricote1 | 2026-05-07 | 04:15:42 | 2026-05-07 10:15:42 | 25.1 | 25.5 | 99.5 | 4.21 | 1.0 |
| 13336 | ciricote11 | 2026-05-07 | 04:01:08 | 2026-05-07 10:01:08 | 25.6 | 25.5 | 97.0 | 4.03 | 0.0 |
| 13335 | ciricote12 | 2026-05-07 | 04:00:48 | 2026-05-07 10:00:48 | 25.5 | 25.5 | 93.5 | 4.03 | 50.0 |
| 13334 | ciricote1 | 2026-05-07 | 04:00:42 | 2026-05-07 10:00:42 | 25.3 | 25.5 | 99.5 | 4.21 | 1.0 |
| 13333 | ciricote11 | 2026-05-07 | 03:46:08 | 2026-05-07 09:46:08 | 25.8 | 25.7 | 95.5 | 4.03 | 0.0 |
| 13332 | ciricote12 | 2026-05-07 | 03:45:48 | 2026-05-07 09:45:48 | 25.6 | 25.7 | 92.5 | 4.03 | 50.0 |
| 13331 | ciricote1 | 2026-05-07 | 03:45:42 | 2026-05-07 09:45:42 | 25.5 | 25.8 | 98.5 | 4.21 | 1.0 |
| 13330 | ciricote11 | 2026-05-07 | 03:31:02 | 2026-05-07 09:31:02 | 25.9 | 25.8 | 94.5 | 4.03 | 0.0 |
| 13329 | ciricote12 | 2026-05-07 | 03:30:48 | 2026-05-07 09:30:48 | 25.8 | 25.8 | 91.5 | 4.03 | 50.0 |
| 13328 | ciricote1 | 2026-05-07 | 03:30:42 | 2026-05-07 09:30:42 | 25.6 | 25.9 | 97.5 | 4.21 | 1.0 |
| 13327 | ciricote1 | 2026-05-07 | 03:16:05 | 2026-05-07 09:16:05 | 25.6 | 26.0 | 97.5 | 4.21 | 1.0 |
| 13326 | ciricote11 | 2026-05-07 | 03:16:01 | 2026-05-07 09:16:01 | 25.9 | 25.9 | 94.0 | 4.03 | 0.0 |
| 13325 | ciricote12 | 2026-05-07 | 03:15:41 | 2026-05-07 09:15:41 | 25.8 | 25.9 | 91.0 | 4.03 | 50.0 |
| 13324 | ciricote1 | 2026-05-07 | 03:01:05 | 2026-05-07 09:01:05 | 25.8 | 26.1 | 96.5 | 4.21 | 1.0 |
| 13323 | ciricote11 | 2026-05-07 | 03:01:01 | 2026-05-07 09:01:02 | 26.0 | 26.0 | 93.5 | 4.03 | 0.0 |
| 13322 | ciricote12 | 2026-05-07 | 03:00:41 | 2026-05-07 09:00:41 | 25.9 | 25.8 | 99.5 | 4.03 | 50.0 |
| 13321 | ciricote1 | 2026-05-07 | 02:46:05 | 2026-05-07 08:46:05 | 25.9 | 26.2 | 95.5 | 4.21 | 1.0 |
| 13320 | ciricote11 | 2026-05-07 | 02:45:54 | 2026-05-07 08:45:54 | 26.1 | 26.0 | 92.5 | 4.03 | 0.0 |
| 13319 | ciricote12 | 2026-05-07 | 02:45:41 | 2026-05-07 08:45:41 | 26.0 | 25.8 | 99.5 | 4.03 | 50.0 |
| 13318 | ciricote1 | 2026-05-07 | 02:31:05 | 2026-05-07 08:31:05 | 26.0 | 26.2 | 94.5 | 4.21 | 1.0 |
| 13317 | ciricote11 | 2026-05-07 | 02:30:54 | 2026-05-07 08:30:55 | 26.2 | 26.1 | 92.0 | 4.05 | 0.0 |
| 13316 | ciricote12 | 2026-05-07 | 02:30:41 | 2026-05-07 08:30:41 | 26.1 | 26.0 | 99.5 | 4.03 | 50.0 |
| 13315 | ciricote1 | 2026-05-07 | 02:15:58 | 2026-05-07 08:15:58 | 26.0 | 26.3 | 93.5 | 4.21 | 1.0 |
| 13314 | ciricote11 | 2026-05-07 | 02:15:54 | 2026-05-07 08:15:54 | 26.3 | 26.2 | 91.0 | 4.05 | 0.0 |
| 13313 | ciricote12 | 2026-05-07 | 02:15:52 | 2026-05-07 08:15:52 | 26.2 | 26.1 | 99.5 | 4.03 | 50.0 |
| 13312 | ciricote12 | 2026-05-07 | 02:01:04 | 2026-05-07 08:01:04 | 26.3 | 26.3 | 87.0 | 4.03 | 50.0 |
| 13311 | ciricote1 | 2026-05-07 | 02:00:58 | 2026-05-07 08:00:58 | 26.2 | 26.5 | 92.5 | 4.21 | 1.0 |
| 13310 | ciricote11 | 2026-05-07 | 02:00:55 | 2026-05-07 08:00:55 | 26.5 | 26.3 | 89.5 | 4.05 | 0.0 |
| 13309 | ciricote1 | 2026-05-07 | 01:45:58 | 2026-05-07 07:45:58 | 26.3 | 26.6 | 91.5 | 4.21 | 1.0 |
| 13308 | ciricote12 | 2026-05-07 | 01:45:52 | 2026-05-07 07:45:52 | 26.5 | 26.4 | 86.0 | 4.03 | 50.0 |
| 13307 | ciricote11 | 2026-05-07 | 01:45:48 | 2026-05-07 07:45:48 | 26.5 | 26.5 | 89.0 | 4.05 | 0.0 |
| 13306 | ciricote12 | 2026-05-07 | 01:30:52 | 2026-05-07 07:30:52 | 26.6 | 26.6 | 85.0 | 4.03 | 50.0 |
| 13305 | ciricote1 | 2026-05-07 | 01:30:51 | 2026-05-07 07:30:51 | 26.5 | 26.7 | 90.5 | 4.21 | 1.0 |
| 13304 | ciricote11 | 2026-05-07 | 01:30:48 | 2026-05-07 07:30:48 | 26.7 | 26.6 | 88.0 | 4.05 | 0.0 |
| 13303 | ciricote12 | 2026-05-07 | 01:16:06 | 2026-05-07 07:16:06 | 26.7 | 26.7 | 84.0 | 4.03 | 50.0 |
| 13302 | ciricote1 | 2026-05-07 | 01:15:51 | 2026-05-07 07:15:51 | 26.6 | 26.8 | 89.5 | 4.21 | 1.0 |
| 13301 | ciricote11 | 2026-05-07 | 01:15:47 | 2026-05-07 07:15:48 | 26.8 | 26.7 | 87.0 | 4.05 | 0.0 |
| 13300 | ciricote11 | 2026-05-07 | 01:01:10 | 2026-05-07 07:01:11 | 27.0 | 26.8 | 86.0 | 4.05 | 0.0 |
| 13299 | ciricote12 | 2026-05-07 | 01:00:57 | 2026-05-07 07:00:57 | 26.8 | 26.8 | 83.0 | 4.03 | 50.0 |
| 13298 | ciricote1 | 2026-05-07 | 01:00:51 | 2026-05-07 07:00:51 | 26.7 | 26.9 | 88.5 | 4.21 | 1.0 |
| 13297 | ciricote11 | 2026-05-07 | 00:46:11 | 2026-05-07 06:46:11 | 27.1 | 27.0 | 85.0 | 4.05 | 0.0 |
| 13296 | ciricote12 | 2026-05-07 | 00:45:50 | 2026-05-07 06:45:50 | 27.0 | 27.0 | 82.0 | 4.03 | 50.0 |
| 13295 | ciricote1 | 2026-05-07 | 00:45:44 | 2026-05-07 06:45:44 | 26.8 | 27.1 | 87.5 | 4.21 | 1.0 |
| 13294 | ciricote11 | 2026-05-07 | 00:31:11 | 2026-05-07 06:31:11 | 27.2 | 27.1 | 84.0 | 4.05 | 0.0 |
| 13293 | ciricote12 | 2026-05-07 | 00:30:50 | 2026-05-07 06:30:50 | 27.1 | 27.1 | 81.0 | 4.03 | 50.0 |
| 13292 | ciricote1 | 2026-05-07 | 00:30:44 | 2026-05-07 06:30:44 | 27.0 | 27.3 | 86.5 | 4.21 | 1.0 |
| 13291 | ciricote1 | 2026-05-07 | 00:16:07 | 2026-05-07 06:16:07 | 27.0 | 27.3 | 86.0 | 4.21 | 1.0 |
| 13290 | ciricote11 | 2026-05-07 | 00:16:04 | 2026-05-07 06:16:04 | 27.3 | 27.2 | 83.5 | 4.05 | 0.0 |
| 13289 | ciricote12 | 2026-05-07 | 00:15:50 | 2026-05-07 06:15:50 | 27.1 | 27.2 | 80.5 | 4.03 | 50.0 |
| 13288 | ciricote1 | 2026-05-07 | 00:01:07 | 2026-05-07 06:01:07 | 27.2 | 27.5 | 84.5 | 4.21 | 1.0 |
| 13287 | ciricote11 | 2026-05-07 | 00:01:04 | 2026-05-07 06:01:04 | 27.5 | 27.4 | 82.0 | 4.05 | 0.0 |
| 13286 | ciricote12 | 2026-05-07 | 00:00:43 | 2026-05-07 06:00:43 | 27.4 | 27.4 | 79.0 | 4.03 | 50.0 |
| 13285 | ciricote1 | 2026-05-06 | 23:46:00 | 2026-05-07 05:46:00 | 27.3 | 27.6 | 83.0 | 4.21 | 1.0 |
| 13284 | ciricote11 | 2026-05-06 | 23:45:56 | 2026-05-07 05:45:56 | 27.6 | 27.6 | 81.0 | 4.05 | 0.0 |
| 13283 | ciricote12 | 2026-05-06 | 23:45:43 | 2026-05-07 05:45:43 | 27.5 | 27.5 | 77.5 | 4.03 | 50.0 |
| 13282 | ciricote12 | 2026-05-06 | 23:31:06 | 2026-05-07 05:31:06 | 27.8 | 27.8 | 75.5 | 4.03 | 50.0 |
| 13281 | ciricote11 | 2026-05-06 | 23:31:03 | 2026-05-07 05:31:03 | 27.9 | 27.8 | 78.5 | 4.05 | 0.0 |
| 13280 | ciricote1 | 2026-05-06 | 23:30:53 | 2026-05-07 05:30:53 | 27.6 | 27.9 | 80.5 | 4.21 | 0.0 |
| 13279 | ciricote12 | 2026-05-06 | 23:15:52 | 2026-05-07 05:15:52 | 28.1 | 28.0 | 73.5 | 4.03 | 50.0 |
| 13278 | ciricote11 | 2026-05-06 | 23:15:49 | 2026-05-07 05:15:49 | 28.1 | 28.1 | 76.5 | 4.05 | 0.0 |
| 13277 | ciricote1 | 2026-05-06 | 23:15:46 | 2026-05-07 05:15:46 | 27.9 | 28.2 | 78.5 | 4.21 | 1.0 |
| 13276 | ciricote1 | 2026-05-06 | 23:01:09 | 2026-05-07 05:01:09 | 28.1 | 28.5 | 76.0 | 4.21 | 0.0 |
| 13275 | ciricote12 | 2026-05-06 | 23:00:59 | 2026-05-07 05:00:59 | 28.3 | 28.3 | 71.0 | 4.03 | 50.0 |
| 13274 | ciricote11 | 2026-05-06 | 23:00:43 | 2026-05-07 05:00:43 | 28.4 | 28.3 | 73.5 | 4.05 | 0.0 |
| 13273 | ciricote1 | 2026-05-06 | 22:46:02 | 2026-05-07 04:46:02 | 28.6 | 29.0 | 72.5 | 4.21 | 0.0 |
| 13272 | ciricote12 | 2026-05-06 | 22:45:59 | 2026-05-07 04:45:59 | 28.8 | 28.8 | 67.5 | 4.03 | 50.0 |
| 13271 | ciricote11 | 2026-05-06 | 22:45:42 | 2026-05-07 04:45:43 | 28.9 | 28.9 | 69.5 | 4.05 | 0.0 |
| 13270 | ciricote11 | 2026-05-06 | 22:30:58 | 2026-05-07 04:30:59 | 29.3 | 29.2 | 70.0 | 4.05 | 0.0 |
| 13269 | ciricote1 | 2026-05-06 | 22:30:55 | 2026-05-07 04:30:55 | 29.0 | 29.3 | 72.0 | 4.21 | 0.0 |
| 13268 | ciricote12 | 2026-05-06 | 22:30:52 | 2026-05-07 04:30:52 | 29.1 | 29.2 | 67.5 | 4.03 | 50.0 |
| 13267 | ciricote12 | 2026-05-06 | 22:15:52 | 2026-05-07 04:15:52 | 29.4 | 29.5 | 68.5 | 4.03 | 50.0 |
| 13266 | ciricote11 | 2026-05-06 | 22:15:51 | 2026-05-07 04:15:51 | 29.6 | 29.5 | 71.0 | 4.05 | 0.0 |
| 13265 | ciricote1 | 2026-05-06 | 22:15:48 | 2026-05-07 04:15:48 | 29.3 | 29.6 | 73.0 | 4.21 | 0.0 |
| 13264 | ciricote1 | 2026-05-06 | 22:01:11 | 2026-05-07 04:01:11 | 29.7 | 30.0 | 70.5 | 4.21 | 1.0 |
| 13263 | ciricote11 | 2026-05-06 | 22:00:51 | 2026-05-07 04:00:51 | 30.0 | 29.9 | 67.5 | 4.05 | 0.0 |
| 13262 | ciricote12 | 2026-05-06 | 22:00:38 | 2026-05-07 04:00:38 | 29.9 | 29.9 | 65.5 | 4.03 | 50.0 |
| 13261 | ciricote1 | 2026-05-06 | 21:46:04 | 2026-05-07 03:46:04 | 30.1 | 30.4 | 67.5 | 4.21 | 1.0 |
| 13260 | ciricote11 | 2026-05-06 | 21:45:52 | 2026-05-07 03:45:52 | 30.3 | 30.2 | 65.5 | 4.05 | 0.0 |
| 13259 | ciricote12 | 2026-05-06 | 21:45:45 | 2026-05-07 03:45:45 | 30.2 | 30.1 | 64.0 | 4.03 | 50.0 |
| 13258 | ciricote1 | 2026-05-06 | 21:30:57 | 2026-05-07 03:30:57 | 30.3 | 30.6 | 65.5 | 4.21 | 1.0 |
| 13257 | ciricote12 | 2026-05-06 | 21:30:45 | 2026-05-07 03:30:45 | 30.5 | 30.5 | 62.5 | 4.03 | 50.0 |
| 13256 | ciricote11 | 2026-05-06 | 21:30:45 | 2026-05-07 03:30:45 | 30.6 | 30.5 | 63.5 | 4.05 | 0.0 |
| 13255 | ciricote11 | 2026-05-06 | 21:16:08 | 2026-05-07 03:16:08 | 30.9 | 30.9 | 64.0 | 4.05 | 0.0 |
| 13254 | ciricote1 | 2026-05-06 | 21:15:50 | 2026-05-07 03:15:50 | 30.6 | 31.0 | 66.5 | 4.21 | 0.0 |
| 13253 | ciricote12 | 2026-05-06 | 21:15:45 | 2026-05-07 03:15:45 | 30.8 | 30.8 | 62.5 | 4.03 | 50.0 |
| 13252 | ciricote11 | 2026-05-06 | 21:01:07 | 2026-05-07 03:01:07 | 31.1 | 31.1 | 63.5 | 4.05 | 0.0 |
| 13251 | ciricote12 | 2026-05-06 | 21:01:01 | 2026-05-07 03:01:01 | 31.0 | 31.0 | 62.5 | 4.03 | 50.0 |
| 13250 | ciricote1 | 2026-05-06 | 21:00:43 | 2026-05-07 03:00:43 | 30.8 | 31.2 | 65.0 | 4.21 | 0.0 |
| 13249 | ciricote11 | 2026-05-06 | 20:46:01 | 2026-05-07 02:46:01 | 31.5 | 31.5 | 60.0 | 4.05 | 0.0 |
| 13248 | ciricote1 | 2026-05-06 | 20:45:59 | 2026-05-07 02:45:59 | 31.3 | 31.6 | 62.0 | 4.21 | 1.0 |
| 13247 | ciricote12 | 2026-05-06 | 20:45:38 | 2026-05-07 02:45:38 | 31.5 | 31.3 | 59.0 | 4.03 | 50.0 |
| 13246 | ciricote11 | 2026-05-06 | 20:31:00 | 2026-05-07 02:31:00 | 31.9 | 31.8 | 57.5 | 4.05 | 0.0 |
| 13245 | ciricote1 | 2026-05-06 | 20:30:52 | 2026-05-07 02:30:52 | 31.6 | 31.9 | 59.5 | 4.21 | 1.0 |
| 13244 | ciricote12 | 2026-05-06 | 20:30:38 | 2026-05-07 02:30:38 | 31.8 | 31.6 | 57.0 | 4.03 | 50.0 |
| 13243 | ciricote11 | 2026-05-06 | 20:15:53 | 2026-05-07 02:15:53 | 32.3 | 32.2 | 56.0 | 4.05 | 0.0 |
| 13242 | ciricote1 | 2026-05-06 | 20:15:45 | 2026-05-07 02:15:45 | 32.0 | 32.3 | 57.5 | 4.21 | 1.0 |
| 13241 | ciricote12 | 2026-05-06 | 20:15:38 | 2026-05-07 02:15:38 | 32.2 | 32.0 | 55.5 | 4.03 | 50.0 |
| 13240 | ciricote1 | 2026-05-06 | 20:01:01 | 2026-05-07 02:01:01 | 32.3 | 32.7 | 56.0 | 4.21 | 1.0 |
| 13239 | ciricote12 | 2026-05-06 | 20:01:01 | 2026-05-07 02:01:01 | 32.6 | 32.3 | 53.5 | 4.03 | 50.0 |
| 13238 | ciricote11 | 2026-05-06 | 20:00:47 | 2026-05-07 02:00:47 | 32.6 | 32.6 | 54.5 | 4.05 | 0.0 |
| 13237 | ciricote1 | 2026-05-06 | 19:45:47 | 2026-05-07 01:45:47 | 32.9 | 33.2 | 53.5 | 4.21 | 0.0 |
| 13236 | ciricote11 | 2026-05-06 | 19:45:46 | 2026-05-07 01:45:46 | 33.2 | 33.1 | 52.0 | 4.05 | 0.0 |
| 13235 | ciricote12 | 2026-05-06 | 19:45:38 | 2026-05-07 01:45:38 | 33.1 | 32.9 | 53.0 | 4.03 | 50.0 |
| 13234 | ciricote1 | 2026-05-06 | 19:31:10 | 2026-05-07 01:31:10 | 33.5 | 33.8 | 51.5 | 4.21 | 1.0 |
| 13233 | ciricote11 | 2026-05-06 | 19:31:09 | 2026-05-07 01:31:09 | 33.7 | 33.7 | 50.0 | 4.05 | 0.0 |
| 13232 | ciricote12 | 2026-05-06 | 19:31:01 | 2026-05-07 01:31:01 | 33.6 | 33.7 | 49.0 | 4.03 | 50.0 |
| 13231 | ciricote11 | 2026-05-06 | 19:16:09 | 2026-05-07 01:16:09 | 34.2 | 34.1 | 49.0 | 4.05 | 0.0 |
| 13230 | ciricote1 | 2026-05-06 | 19:16:03 | 2026-05-07 01:16:03 | 33.9 | 34.3 | 50.0 | 4.21 | 0.0 |
| 13229 | ciricote12 | 2026-05-06 | 19:15:54 | 2026-05-07 01:15:54 | 34.1 | 34.1 | 48.0 | 4.03 | 50.0 |
| 13228 | ciricote11 | 2026-05-06 | 19:01:09 | 2026-05-07 01:01:09 | 34.6 | 34.5 | 48.0 | 4.05 | 0.0 |
| 13227 | ciricote1 | 2026-05-06 | 19:00:49 | 2026-05-07 01:00:49 | 34.3 | 34.6 | 49.5 | 4.21 | 0.0 |
| 13226 | ciricote12 | 2026-05-06 | 19:00:38 | 2026-05-07 01:00:38 | 34.5 | 34.5 | 47.0 | 4.03 | 50.0 |
| 13225 | ciricote11 | 2026-05-06 | 18:46:10 | 2026-05-07 00:46:10 | 35.0 | 34.9 | 46.5 | 4.06 | 0.0 |
| 13224 | ciricote12 | 2026-05-06 | 18:46:01 | 2026-05-07 00:46:01 | 34.9 | 34.9 | 45.5 | 4.03 | 50.0 |
| 13223 | ciricote1 | 2026-05-06 | 18:45:42 | 2026-05-07 00:45:42 | 34.7 | 34.9 | 48.0 | 4.21 | 1.0 |
| 13222 | ciricote11 | 2026-05-06 | 18:31:03 | 2026-05-07 00:31:03 | 35.4 | 35.3 | 46.0 | 4.06 | 0.0 |
| 13221 | ciricote12 | 2026-05-06 | 18:31:01 | 2026-05-07 00:31:01 | 35.3 | 35.3 | 45.0 | 4.03 | 50.0 |
| 13220 | ciricote1 | 2026-05-06 | 18:30:58 | 2026-05-07 00:30:58 | 35.1 | 35.4 | 47.5 | 4.21 | 1.0 |
| 13219 | ciricote11 | 2026-05-06 | 18:16:03 | 2026-05-07 00:16:03 | 35.9 | 35.8 | 45.0 | 4.06 | 0.0 |
| 13218 | ciricote12 | 2026-05-06 | 18:15:54 | 2026-05-07 00:15:54 | 35.8 | 35.7 | 44.0 | 4.03 | 50.0 |
| 13217 | ciricote1 | 2026-05-06 | 18:15:44 | 2026-05-07 00:15:44 | 35.6 | 35.8 | 46.5 | 4.21 | 1.0 |
| 13216 | ciricote11 | 2026-05-06 | 18:01:03 | 2026-05-07 00:01:03 | 36.1 | 36.1 | 43.5 | 4.06 | 0.0 |
| 13215 | ciricote12 | 2026-05-06 | 18:01:01 | 2026-05-07 00:01:01 | 36.1 | 36.1 | 43.0 | 4.03 | 50.0 |
| 13214 | ciricote1 | 2026-05-06 | 18:00:53 | 2026-05-07 00:00:53 | 36.0 | 36.3 | 45.0 | 4.21 | 1.0 |
| 13213 | ciricote11 | 2026-05-06 | 17:46:03 | 2026-05-06 23:46:03 | 36.8 | 36.7 | 42.0 | 4.06 | 0.0 |
| 13212 | ciricote1 | 2026-05-06 | 17:45:46 | 2026-05-06 23:45:46 | 36.5 | 36.8 | 43.5 | 4.21 | 1.0 |
| 13211 | ciricote12 | 2026-05-06 | 17:45:38 | 2026-05-06 23:45:38 | 36.7 | 36.6 | 41.0 | 4.05 | 50.0 |
| 13210 | ciricote1 | 2026-05-06 | 17:31:09 | 2026-05-06 23:31:09 | 37.0 | 37.2 | 43.5 | 4.21 | 1.0 |
| 13209 | ciricote11 | 2026-05-06 | 17:31:03 | 2026-05-06 23:31:03 | 37.1 | 37.2 | 42.0 | 4.06 | 0.0 |
| 13208 | ciricote12 | 2026-05-06 | 17:30:38 | 2026-05-06 23:30:38 | 37.1 | 37.0 | 41.5 | 4.03 | 50.0 |
| 13207 | ciricote11 | 2026-05-06 | 17:16:03 | 2026-05-06 23:16:03 | 37.7 | 37.8 | 40.0 | 4.06 | 0.0 |
| 13206 | ciricote1 | 2026-05-06 | 17:16:02 | 2026-05-06 23:16:02 | 37.6 | 37.9 | 41.5 | 4.21 | 1.0 |
| 13205 | ciricote12 | 2026-05-06 | 17:15:38 | 2026-05-06 23:15:38 | 37.7 | 37.7 | 39.0 | 4.05 | 50.0 |
Página 8 de 75